This is the latest recevied weather packets stored in our database for station/object 4S6DRJ-13. If no packets are shown the sender has not sent any weather packets the latest 10 day(s).
| Time | Temp. | Humidity | Pressure | Rain* | Wind** | Luminosity | Snow |
|---|---|---|---|---|---|---|---|
| 1788030003 | 27.78° C | 85% | 1010.5 hPa | 0 mm | 0.45 m/s, 221° | 0 W/m² | - |
| 1788029943 | 27.78° C | 85% | 1010.6 hPa | 0 mm | 0.89 m/s, 195° | 0 W/m² | - |
| 1788029882 | 27.78° C | 85% | 1010.3 hPa | 0 mm | 2.68 m/s, 209° | 0 W/m² | - |
| 1788029821 | 27.78° C | 85% | 1010.4 hPa | 0 mm | 1.34 m/s, 242° | 0 W/m² | - |
| 1788029760 | 27.78° C | 85% | 1010.5 hPa | 0 mm | 1.34 m/s, 276° | 0 W/m² | - |
| 1788029699 | 27.78° C | 85% | 1010.6 hPa | 0 mm | 0.45 m/s, 240° | 0 W/m² | - |
| 1788029638 | 27.78° C | 85% | 1010.6 hPa | 0 mm | 0.45 m/s, 207° | 0 W/m² | - |
| 1788029576 | 27.78° C | 85% | 1010.4 hPa | 0 mm | 0.45 m/s, 220° | 0 W/m² | - |
| 1788029516 | 27.78° C | 85% | 1010.5 hPa | 0 mm | 0.89 m/s, 237° | 0 W/m² | - |
| 1788029455 | 27.78° C | 85% | 1010.5 hPa | 0 mm | 0 m/s | 0 W/m² | - |
| 1788029394 | 27.78° C | 85% | 1010.5 hPa | 0 mm | 0.45 m/s, 216° | 0 W/m² | - |
| 1788029332 | 27.78° C | 85% | 1010.7 hPa | 0 mm | 0.89 m/s, 223° | 0 W/m² | - |
| 1788029272 | 27.78° C | 85% | 1010.5 hPa | 0 mm | 1.34 m/s, 214° | 0 W/m² | - |
| 1788029211 | 27.78° C | 85% | 1010.5 hPa | 0 mm | 0.89 m/s, 261° | 0 W/m² | - |
| 1788029150 | 27.78° C | 85% | 1010.6 hPa | 0 mm | 1.34 m/s, 243° | 0 W/m² | - |
| 1788029089 | 27.78° C | 85% | 1010.6 hPa | 0 mm | 1.34 m/s, 208° | 0 W/m² | - |
| 1788029028 | 27.78° C | 85% | 1010.5 hPa | 0 mm | 1.34 m/s, 253° | 0 W/m² | - |
| 1788028967 | 27.78° C | 85% | 1010.5 hPa | 0 mm | 0.45 m/s, 222° | 0 W/m² | - |
| 1788028905 | 27.78° C | 85% | 1010.5 hPa | 0 mm | 0.89 m/s, 211° | 0 W/m² | - |
| 1788028844 | 27.78° C | 85% | 1010.6 hPa | 0 mm | 0.89 m/s, 245° | 0 W/m² | - |
| 1788028784 | 27.78° C | 85% | 1010.6 hPa | 0 mm | 0 m/s | 0 W/m² | - |
| 1788028723 | 27.78° C | 85% | 1010.5 hPa | 0 mm | 1.34 m/s, 192° | 0 W/m² | - |
| 1788028662 | 27.78° C | 85% | 1010.7 hPa | 0 mm | 0.89 m/s, 188° | 0 W/m² | - |
| 1788028600 | 27.78° C | 85% | 1010.7 hPa | 0 mm | 1.34 m/s, 249° | 0 W/m² | - |
| 1788028539 | 27.78° C | 85% | 1010.6 hPa | 0 mm | 1.79 m/s, 213° | 0 W/m² | - |
* Rain latest hour (hover to see other rain measurements)
** Current wind speed in m/s (hover to see current wind gust speed)